When you browse on this site, cookies collect data to enhance your experience and personalize the content and advertising you see.
Visit our Privacy Policy to learn more. By continuing to use the site, you agree to this use of cookies and data.
  • In Latvia
  • List of Countries
  • For 7 days
  • Water Temperature
  • Weather Map
  • Weather Widgets
  • user-avatar
    Login

    Hourly Weather Burcevo

    Today, 25 February, Tuesday

    Time Temperature Precipitation Wind Pressure Humidity
    00:00 -4°C° 0 mm 3 mps 732 mmHg 89%
    01:00 -4°C° 0 mm 3 mps 733 mmHg 89%
    02:00 -5°C° 0 mm 3 mps 733 mmHg 88%
    03:00 -5°C° 0 mm 3 mps 733 mmHg 87%
    04:00 -5°C° 0 mm 3 mps 733 mmHg 87%
    05:00 -5°C° 0 mm 3 mps 733 mmHg 86%
    06:00 -5°C° 0 mm 3 mps 734 mmHg 85%
    07:00 -4°C° 0 mm 4 mps 734 mmHg 84%
    08:00 -4°C° 0 mm 4 mps 734 mmHg 83%
    09:00 -3°C° 0 mm 4 mps 734 mmHg 78%
    10:00 -2°C° 0 mm 4 mps 734 mmHg 73%
    11:00 -2°C° 0 mm 4 mps 735 mmHg 68%
    12:00 -1°C° 0 mm 4 mps 735 mmHg 65%
    13:00 -1°C° 0 mm 4 mps 735 mmHg 62%
    14:00 0°C° 0 mm 4 mps 735 mmHg 59%
    15:00 0°C° 0 mm 3 mps 735 mmHg 64%
    16:00 -1°C° 0 mm 3 mps 735 mmHg 68%
    17:00 -2°C° 0 mm 2 mps 735 mmHg 73%
    18:00 -3°C° 0 mm 2 mps 735 mmHg 74%
    19:00 -3°C° 0 mm 2 mps 735 mmHg 75%
    20:00 -3°C° 0 mm 2 mps 735 mmHg 76%
    21:00 -3°C° 0 mm 2 mps 735 mmHg 77%
    22:00 -3°C° 0 mm 2 mps 735 mmHg 79%
    23:00 -4°C° 0 mm 2 mps 735 mmHg 80%

    Tomorrow, 26 February, Wednesday

    Time Temperature Precipitation Wind Pressure Humidity
    00:00 -4°C° 0 mm 2 mps 734 mmHg 81%
    01:00 -3°C° 0 mm 2 mps 734 mmHg 82%
    02:00 -4°C° 0 mm 3 mps 734 mmHg 83%
    03:00 -4°C° 0 mm 3 mps 733 mmHg 84%
    04:00 -4°C° 0 mm 3 mps 733 mmHg 85%
    05:00 -4°C° 0 mm 4 mps 732 mmHg 87%
    06:00 -3°C° 0 mm 4 mps 731 mmHg 88%
    07:00 -4°C° 0 mm 5 mps 731 mmHg 89%
    08:00 -4°C° 0 mm 5 mps 730 mmHg 91%
    09:00 -2°C° 0 mm 5 mps 730 mmHg 90%
    10:00 -1°C° 0 mm 5 mps 729 mmHg 90%
    11:00 -1°C° 0 mm 5 mps 729 mmHg 89%
    12:00 0°C° 0.3 mm 5 mps 729 mmHg 92%
    13:00 0°C° 0.3 mm 5 mps 728 mmHg 94%
    14:00 0°C° 0.3 mm 5 mps 728 mmHg 97%
    15:00 0°C° 0.2 mm 4 mps 728 mmHg 96%
    16:00 +1°C° 0.2 mm 4 mps 728 mmHg 96%
    17:00 +1°C° 0.2 mm 4 mps 728 mmHg 96%
    18:00 +1°C° 0.1 mm 3 mps 728 mmHg 96%
    19:00 +1°C° 0.1 mm 3 mps 729 mmHg 96%
    20:00 +2°C° 0.1 mm 2 mps 729 mmHg 96%
    21:00 +1°C° 0 mm 2 mps 730 mmHg 96%
    22:00 +1°C° 0 mm 2 mps 730 mmHg 96%
    23:00 -1°C° 0 mm 2 mps 730 mmHg 95%

    Day after tomorrow, 27 February, Thursday

    Time Temperature Precipitation Wind Pressure Humidity
    00:00 +1°C° 0 mm 1 mps 730 mmHg 95%
    01:00 +1°C° 0 mm 1 mps 730 mmHg 95%
    02:00 0°C° 0 mm 0 mps 730 mmHg 95%
    03:00 +1°C° 0 mm 1 mps 730 mmHg 95%
    04:00 +1°C° 0 mm 1 mps 730 mmHg 96%
    05:00 +1°C° 0 mm 1 mps 729 mmHg 96%
    06:00 -1°C° 0.5 mm 2 mps 729 mmHg 97%
    07:00 +1°C° 0.5 mm 2 mps 729 mmHg 97%
    08:00 0°C° 0.5 mm 3 mps 729 mmHg 98%
    09:00 +1°C° 0.6 mm 2 mps 729 mmHg 98%
    10:00 +1°C° 0.6 mm 2 mps 728 mmHg 98%
    11:00 +1°C° 0.6 mm 2 mps 728 mmHg 98%
    12:00 +2°C° 0.1 mm 1 mps 728 mmHg 98%
    13:00 +2°C° 0.1 mm 1 mps 728 mmHg 98%
    14:00 +3°C° 0.1 mm 1 mps 728 mmHg 98%
    15:00 +3°C° 0.1 mm 1 mps 728 mmHg 98%
    16:00 +2°C° 0.1 mm 1 mps 728 mmHg 98%
    17:00 +2°C° 0.1 mm 1 mps 727 mmHg 98%
    18:00 +2°C° 0 mm 1 mps 727 mmHg 98%
    19:00 +2°C° 0 mm 1 mps 727 mmHg 98%
    20:00 +1°C° 0 mm 2 mps 727 mmHg 98%
    21:00 +1°C° 0 mm 2 mps 727 mmHg 98%
    22:00 +1°C° 0 mm 2 mps 727 mmHg 98%
    23:00 +1°C° 0 mm 2 mps 727 mmHg 98%

    28 February, Friday

    Time Temperature Precipitation Wind Pressure Humidity
    00:00 +1°C° 0 mm 2 mps 727 mmHg 98%
    01:00 +1°C° 0 mm 2 mps 727 mmHg 98%
    02:00 +2°C° 0 mm 1 mps 727 mmHg 97%
    03:00 +1°C° 0 mm 2 mps 727 mmHg 97%
    04:00 -1°C° 0 mm 2 mps 727 mmHg 96%
    05:00 -1°C° 0 mm 2 mps 727 mmHg 95%
    06:00 -1°C° 0 mm 2 mps 727 mmHg 94%
    07:00 -1°C° 0 mm 2 mps 727 mmHg 93%
    08:00 -1°C° 0 mm 2 mps 727 mmHg 92%
    09:00 -1°C° 0.1 mm 2 mps 727 mmHg 90%
    10:00 0°C° 0.1 mm 3 mps 726 mmHg 89%
    11:00 -1°C° 0.1 mm 4 mps 726 mmHg 87%
    12:00 -1°C° 0 mm 4 mps 726 mmHg 84%
    13:00 -1°C° 0 mm 4 mps 727 mmHg 81%
    14:00 -1°C° 0 mm 5 mps 727 mmHg 79%
    15:00 -1°C° 0 mm 5 mps 727 mmHg 78%
    16:00 -2°C° 0 mm 5 mps 728 mmHg 77%
    17:00 -2°C° 0 mm 5 mps 728 mmHg 77%
    18:00 -2°C° 0 mm 5 mps 728 mmHg 77%
    19:00 -4°C° 0 mm 5 mps 729 mmHg 78%
    20:00 -4°C° 0 mm 5 mps 729 mmHg 78%
    21:00 -4°C° 0 mm 5 mps 730 mmHg 81%
    22:00 -4°C° 0 mm 5 mps 730 mmHg 83%
    23:00 -4°C° 0 mm 6 mps 730 mmHg 86%

    29 February, Saturday

    Time Temperature Precipitation Wind Pressure Humidity
    00:00 -4°C° 0 mm 6 mps 731 mmHg 86%
    01:00 -4°C° 0 mm 6 mps 731 mmHg 86%
    02:00 -5°C° 0 mm 6 mps 731 mmHg 86%
    03:00 -5°C° 0.1 mm 6 mps 732 mmHg 83%
    04:00 -5°C° 0.1 mm 6 mps 732 mmHg 81%
    05:00 -5°C° 0.1 mm 6 mps 732 mmHg 78%
    06:00 -5°C° 0 mm 6 mps 733 mmHg 76%
    07:00 -5°C° 0 mm 6 mps 733 mmHg 73%
    08:00 -5°C° 0 mm 6 mps 734 mmHg 71%
    09:00 -4°C° 0 mm 6 mps 734 mmHg 66%
    10:00 -3°C° 0 mm 6 mps 734 mmHg 61%
    11:00 -2°C° 0 mm 6 mps 735 mmHg 56%
    12:00 -2°C° 0 mm 6 mps 735 mmHg 59%
    13:00 -2°C° 0 mm 6 mps 735 mmHg 62%
    14:00 -1°C° 0 mm 5 mps 735 mmHg 65%
    15:00 -1°C° 0 mm 5 mps 735 mmHg 70%
    16:00 -2°C° 0 mm 4 mps 735 mmHg 76%
    17:00 -2°C° 0 mm 3 mps 735 mmHg 81%
    18:00 -2°C° 0 mm 3 mps 736 mmHg 80%
    19:00 -2°C° 0 mm 3 mps 736 mmHg 79%
    20:00 -4°C° 0 mm 3 mps 736 mmHg 79%
    21:00 -4°C° 0 mm 3 mps 737 mmHg 75%
    22:00 -4°C° 0 mm 4 mps 737 mmHg 72%
    23:00 -4°C° 0 mm 4 mps 737 mmHg 69%

    1 March, Sunday

    Time Temperature Precipitation Wind Pressure Humidity
    00:00 -4°C° 0 mm 4 mps 737 mmHg 71%
    01:00 -4°C° 0 mm 4 mps 738 mmHg 73%
    02:00 -5°C° 0 mm 4 mps 738 mmHg 76%
    03:00 -5°C° 0 mm 4 mps 738 mmHg 78%
    04:00 -5°C° 0 mm 3 mps 739 mmHg 80%
    05:00 -5°C° 0 mm 3 mps 739 mmHg 82%
    06:00 -5°C° 0 mm 3 mps 740 mmHg 80%
    07:00 -4°C° 0 mm 3 mps 740 mmHg 78%
    08:00 -4°C° 0 mm 3 mps 740 mmHg 76%
    09:00 -2°C° 0 mm 3 mps 740 mmHg 70%
    10:00 -1°C° 0 mm 3 mps 741 mmHg 64%
    11:00 -1°C° 0 mm 3 mps 741 mmHg 59%
    12:00 0°C° 0 mm 3 mps 741 mmHg 57%
    13:00 0°C° 0 mm 3 mps 741 mmHg 56%
    14:00 0°C° 0 mm 3 mps 740 mmHg 55%
    15:00 0°C° 0 mm 3 mps 740 mmHg 61%
    16:00 -1°C° 0 mm 3 mps 740 mmHg 66%
    17:00 -1°C° 0 mm 3 mps 740 mmHg 72%
    18:00 -1°C° 0 mm 3 mps 740 mmHg 74%
    19:00 -1°C° 0 mm 3 mps 740 mmHg 76%
    20:00 -2°C° 0 mm 4 mps 740 mmHg 79%
    21:00 -3°C° 0.1 mm 4 mps 740 mmHg 83%
    22:00 -3°C° 0.1 mm 4 mps 740 mmHg 86%
    23:00 -4°C° 0.1 mm 5 mps 740 mmHg 90%
    Show more